{"data":{"norad_id":69692,"epoch":"2026-09-20T00:40:24.854016Z","epoch_age_seconds":62409,"freshness":"FRESH","line1":"1 69692U 26145R   26263.02806544  .00009870  00000+0  30764-3 0  9994","line2":"2 69692  97.2841 109.7424 0001458  93.9379 266.2031 15.33446615 13473","mean_motion":15.33446615,"eccentricity":0.0001458,"inclination_deg":97.2841,"raan_deg":109.7424,"arg_perigee_deg":93.9379,"mean_anomaly_deg":266.2031,"bstar":0.00030764,"rev_number":1347,"period_min":93.906105756411,"perigee_km":464.54056150974,"apogee_km":466.53617724745,"semimajor_km":6843.6753693786,"source":"CELESTRAK","updated_at":"2026-09-20T09:00:44.255137Z"}}